Simultaneous Nadir Overpasses (SNOs) Predictions

Prediction of SNOs between NOAA-19 and TERRA Satellite Orbit:

Table of predicted SNOs for the next 14.0 days since TLE Epoch: 9/4/2021
Index Date (NOAA-19) Time (NOAA-19) Lat,Lon (NOAA-19) SZA (NOAA-19 ) Date (TERRA) Time (TERRA) Lat,Lon (TERRA) SZA (TERRA ) Distance(km) Time Diff (sec)
1 09/04/2021 09:48:39 80.41, 66.97 75.07 09/04/2021 09:49:00 80.41, 67.12 75.09 2.79 21
2 09/04/2021 10:39:38 -80.39,-125.35 104.90 09/04/2021 10:38:27 -80.41,-125.28 104.91 2.29 71
3 09/06/2021 15:21:46 -80.42, 163.73 104.09 09/06/2021 15:22:43 -80.40, 163.59 104.09 2.87 57
4 09/06/2021 16:12:46 80.41, -28.85 75.94 09/06/2021 16:12:09 80.41, -28.74 75.93 2.05 37
5 09/08/2021 21:45:53 -80.42, 67.70 103.22 09/08/2021 21:45:52 -80.40, 67.73 103.23 2.64 1
6 09/11/2021 03:19:00 80.42, 164.53 77.66 09/11/2021 03:19:32 80.42, 164.52 77.67 0.21 32
7 09/11/2021 04:09:58 -80.41, -28.00 102.32 09/11/2021 04:09:00 -80.39, -28.14 102.38 3.36 58
8 09/13/2021 08:52:05 -80.42, -98.64 101.47 09/13/2021 08:53:14 -80.44, -98.70 101.43 2.81 69
9 09/13/2021 09:43:07 80.42, 68.65 78.55 09/13/2021 09:42:41 80.41, 68.60 78.53 1.30 26
10 09/15/2021 15:16:12 -80.43, 165.28 100.58 09/15/2021 15:16:23 -80.43, 165.38 100.57 1.88 11
11 09/17/2021 20:49:22 80.44, -98.11 80.30 09/17/2021 20:50:04 80.44, -97.95 80.33 3.14 42



Historial Predications of SNOs between NOAA-19 and TERRA
